Overview Statistics Trail Chart Weather Telemetry Raw packets
 

This is the latest recevied weather packets stored in our database for station/object N3OZD-10. If no packets are shown the sender has not sent any weather packets the latest 10 day(s).

<< 117 118 119 120 121 >>
Time Temp. Humidity Pressure Rain* Wind** Luminosity Snow
1787763439 26.67° C 58% 1018.2 hPa 0 mm - - -
1787763139 26.11° C 57% 1018.3 hPa 0 mm - - -
1787762839 26.11° C 57% 1018.3 hPa 0 mm - - -
1787762540 26.11° C 57% 1018.4 hPa 0 mm - - -
1787762242 26.67° C 55% 1018.4 hPa 0 mm - - -
1787761946 26.67° C 57% 1018.5 hPa 0 mm - - -
1787761643 26.11° C 57% 1018.5 hPa 0 mm - - -
1787761341 26.11° C 61% 1018.5 hPa 0 mm - - -
1787761039 26.11° C 61% 1018.6 hPa 0 mm - - -
1787760741 25.56° C 60% 1018.6 hPa 0 mm - - -
1787760440 25.56° C 60% 1018.7 hPa 0 mm - - -
1787760139 26.11° C 60% 1018.7 hPa 0 mm - - -
1787759945 26.11° C 59% 1018.7 hPa 0 mm - - -
1787759840 26.11° C 59% 1018.7 hPa 0 mm - - -
1787759539 26.11° C 61% 1018.7 hPa 0 mm - - -
1787759240 25.56° C 61% 1018.8 hPa 0 mm - - -
1787758940 25.56° C 63% 1018.9 hPa 0 mm - - -
1787758647 25° C 61% 1019 hPa 0 mm - - -
1787758343 25° C 60% 1019 hPa 0 mm - - -
1787758042 25° C 63% 1019 hPa 0 mm - - -
1787757742 25° C 62% 1019 hPa 0 mm - - -
1787757140 25° C 61% 1019.1 hPa 0 mm - - -
1787756840 25° C 64% 1019.1 hPa 0 mm - - -
1787756540 25° C 62% 1019.2 hPa 0 mm - - -
1787756241 24.44° C 65% 1019.2 hPa 0 mm - - -

* Rain latest hour (hover to see other rain measurements)
** Current wind speed in m/s (hover to see current wind gust speed)